Погода в Рождественском

Россия / Пермский край     57°33′23″N   55°42′04″E
темп.,
°C
ветер,
м/с
пор.,
м/с
влажн.,
%
обл.,
%
осадки,
мм/ч
давл.,
гПа
погр.,
м
5 марта, пт
пт523:00−4ю61395100 3.1 987906
02:00−5юз5129397 2.8 986687
05:00−4з6129498 4.8 989845
08:00−9зюз51192100 0.5 993555
11:00−10зюз5893100 0.9 996509
14:00−8з4790100 0.2 999640
17:00−8з4786100 0.3 1001757
20:00−13з369433 0.0 1003115
6 марта, сб
сб623:00−15юз239623 0.0 100538
02:00−14юз389896 0.1 1006224
05:00−15юз379998 0.1 1007204
08:00−17зюз2699100 0.1 1008158
11:00−14з368999 0.1 1009521
14:00−12з368593 0.0 1010680
17:00−12з358797 0.1 1011711
20:00−16зюз2296100 0.1 101138
7 марта, вс
вс723:00−18зюз129998 0.1 101220
02:00−19ююз1110091 0.0 101120
05:00−20ююз1210094 0.1 101120
08:00−21ююз11100100 0.0 101020
11:00−15зюз1292100 0.1 1009248
14:00−12зюз1284100 0.0 1008589
17:00−12зюз2386100 0.1 1008714
20:00−17ююз1197100 0.1 100820
8 марта, пн
пн823:00−17ю229891 0.1 100826
02:00−19ю2599100 0.1 1007107
05:00−19юв2597100 0.1 1005135
08:00−15юв31095100 0.2 1002348
11:00−13ююв4992100 1.0 1000599
14:00−9ююв4890100 0.4 998694
17:00−7ююв2493100 0.9 998429
20:00−8ююз3896100 0.5 1000289
9 марта, вт
вт923:00−11ю389598 0.6 1001198
02:00−10ю3895100 0.8 1000353
05:00−13в2295100 0.9 99750
08:00−12ссв2494100 0.0 995116
11:00−10ссз2593100 0.4 997291
14:00−7сз3689100 0.1 1002653
17:00−7зсз3588100 0.3 1005752
20:00−13ссз129697 0.1 100721